Weather History for Middletown, OH

Change the Weather History Date:

Sunday, July 28, 2013

  Actual Average (KDAY) Record (KDAY)
Temperature  
Mean Temperature 62 °F 74 °F  
Max Temperature 72 °F 83 °F 102 °F (1901)
Min Temperature 53 °F 64 °F 53 °F (2013)
Degree Days  
Heating Degree Days 2 0  
Month to date heating degree days 0  
Since 1 June heating degree days 22  
Since 1 July heating degree days 0  
Cooling Degree Days 0 9  
Month to date cooling degree days 252  
Year to date cooling degree days 512  
Since 1 June cooling degree days 442  
Growing Degree Days 12 (Base 50)    
Moisture  
Dew Point 56 °F    
Average Humidity 80    
Maximum Humidity 100    
Minimum Humidity 58    
Precipitation  
Precipitation 0.00 in 0.12 in 1.66 in (1896)
Month to date precipitation 3.78  
Year to date precipitation 24.99  
Snow  
Snow 0.00 in 0.00 in 0.00 in ()
Month to date snowfall 0.0  
Since 1 June snowfall 0.0  
Since 1 July snowfall 0.0  
Snow Depth -    
Sea Level Pressure  
Sea Level Pressure 30.01 in    
Wind  
Wind Speed 4 mph (WSW)    
Max Wind Speed 16 mph    
Max Gust Speed 18 mph    
Visibility 10 miles    
Events      
T = Trace of Precipitation, MM = Missing Value Source: NWS Daily Summary

Daily Weather History Graph

Daily Weather History Graph

Search for Another Location

Airport:

Trip Planner

Search our weather history database for the weather conditions in past years. The results will help you decide how hot, cold, wet, or windy it might be!

Date:

Astronomy

Jul. 28, 2013 Rise Set
Actual Time 6:33 AM EDT 8:53 PM EDT
Civil Twilight 6:03 AM EDT 9:24 PM EDT
Nautical Twilight 5:25 AM EDT 10:01 PM EDT
Astronomical Twilight 4:44 AM EDT 10:42 PM EDT
Moon No Moon Rise 1:13 PM EDT (7/28)
Length of Visible Light 15h 20m
Length of Day
14h 20m
Waning Gibbous, 61% of the Moon is Illuminated
Jul 28
Waning Gibbous
Jul 29
Last Quarter
Aug 6
New
Aug 14
First Quarter
Aug 20
Full

Hourly Weather History & Observations

Time (EDT) Temp. Dew Point Humidity Pressure Visibility Wind Dir Wind Speed Gust Speed Precip Events Conditions
12:15 AM 61.0 °F 57.2 °F 87% 29.94 in 10.0 mi NW 3.5 mph - N/A   Clear
12:35 AM 60.1 °F 57.6 °F 91% 29.94 in 10.0 mi Calm Calm - N/A   Clear
12:55 AM 59.0 °F 58.1 °F 97% 29.94 in 10.0 mi Calm Calm - N/A   Clear
1:15 AM 57.7 °F 57.4 °F 99% 29.94 in 10.0 mi Calm Calm - N/A   Scattered Clouds
1:35 AM 57.7 °F 57.7 °F 100% 29.94 in 10.0 mi Calm Calm - N/A   Scattered Clouds
1:55 AM 57.7 °F 57.7 °F 100% 29.94 in 10.0 mi Calm Calm - N/A   Clear
2:15 AM 57.0 °F 57.0 °F 100% 29.94 in 10.0 mi Calm Calm - N/A   Clear
2:35 AM 57.6 °F 57.6 °F 100% 29.94 in 10.0 mi Calm Calm - N/A   Clear
2:55 AM 55.4 °F 55.4 °F 100% 29.94 in 10.0 mi Calm Calm - N/A   Clear
3:15 AM 55.4 °F 55.4 °F 100% 29.94 in 10.0 mi Calm Calm - N/A   Clear
3:35 AM 55.4 °F 55.4 °F 100% 29.95 in 7.0 mi Calm Calm - N/A   Clear
3:55 AM 55.4 °F 55.4 °F 100% 29.95 in 3.0 mi Calm Calm - N/A   Clear
4:15 AM 55.2 °F 55.2 °F 100% 29.95 in 10.0 mi Calm Calm - N/A   Clear
4:35 AM 55.4 °F 55.4 °F 100% 29.95 in 10.0 mi NW 3.5 mph - N/A   Clear
4:55 AM 55.4 °F 55.4 °F 100% 29.96 in 10.0 mi Calm Calm - N/A   Scattered Clouds
5:15 AM 55.4 °F 55.4 °F 100% 29.96 in 10.0 mi Calm Calm - N/A   Mostly Cloudy
5:35 AM 55.4 °F 55.0 °F 99% 29.97 in 10.0 mi Calm Calm - N/A   Scattered Clouds
5:55 AM 55.4 °F 55.4 °F 100% 29.97 in 10.0 mi Calm Calm - N/A   Scattered Clouds
6:15 AM 55.4 °F 55.4 °F 100% 29.98 in 10.0 mi Calm Calm - N/A   Scattered Clouds
6:35 AM 53.2 °F 53.2 °F 100% 29.98 in 10.0 mi Calm Calm - N/A   Scattered Clouds
6:55 AM 53.1 °F 53.1 °F 100% 30.00 in 10.0 mi West 4.6 mph - N/A   Clear
7:15 AM 55.4 °F 55.2 °F 99% 30.00 in 10.0 mi West 4.6 mph - N/A   Clear
7:35 AM 55.4 °F 54.9 °F 98% 30.00 in 10.0 mi Calm Calm - N/A   Clear
7:55 AM 56.8 °F 55.6 °F 96% 30.01 in 10.0 mi West 4.6 mph - N/A   Clear
8:15 AM 57.7 °F 55.6 °F 92% 30.02 in 10.0 mi WNW 5.8 mph - N/A   Clear
8:35 AM 59.0 °F 54.9 °F 86% 30.03 in 10.0 mi West 5.8 mph - N/A   Clear
8:55 AM 59.0 °F 54.1 °F 84% 30.02 in 10.0 mi NW 6.9 mph - N/A   Clear
9:15 AM 60.1 °F 54.3 °F 81% 30.02 in 10.0 mi West 5.8 mph - N/A   Clear
9:35 AM 61.5 °F 55.0 °F 79% 30.03 in 10.0 mi West 4.6 mph - N/A   Clear
9:55 AM 62.6 °F 54.0 °F 73% 30.03 in 10.0 mi WSW 8.1 mph - N/A   Clear
10:15 AM 62.6 °F 53.1 °F 71% 30.02 in 10.0 mi WSW 9.2 mph - N/A   Clear
10:35 AM 67.1 °F 56.3 °F 68% 30.02 in 10.0 mi West 11.5 mph 16.1 mph N/A   Clear
10:55 AM 66.4 °F 55.9 °F 69% 30.03 in 10.0 mi West 11.5 mph - N/A   Clear
11:15 AM 67.6 °F 56.7 °F 68% 30.03 in 10.0 mi West 6.9 mph 16.1 mph N/A   Clear
11:35 AM 67.6 °F 56.1 °F 67% 30.03 in 10.0 mi WSW 9.2 mph - N/A   Scattered Clouds
11:55 AM 67.6 °F 56.1 °F 67% 30.03 in 10.0 mi WSW 15.0 mph 18.4 mph N/A   Scattered Clouds
12:15 PM 67.6 °F 56.1 °F 67% 30.03 in 10.0 mi WSW 8.1 mph - N/A   Mostly Cloudy
12:35 PM 67.6 °F 54.5 °F 63% 30.03 in 10.0 mi West 6.9 mph - N/A   Scattered Clouds
12:55 PM 67.6 °F 55.8 °F 66% 30.03 in 10.0 mi West 8.1 mph - N/A   Scattered Clouds
1:15 PM 68.2 °F 55.8 °F 64% 30.03 in 10.0 mi SW 12.7 mph - N/A   Scattered Clouds
1:35 PM 72.7 °F 59.4 °F 63% 30.03 in 10.0 mi WSW 13.8 mph - N/A   Scattered Clouds
1:55 PM 70.0 °F 55.9 °F 61% 30.02 in 10.0 mi WSW 16.1 mph - N/A   Mostly Cloudy
2:15 PM 67.6 °F 54.3 °F 62% 30.02 in 10.0 mi WSW 10.4 mph - N/A   Mostly Cloudy
2:35 PM 67.6 °F 54.7 °F 63% 30.03 in 10.0 mi West 9.2 mph - N/A   Overcast
2:55 PM 70.5 °F 57.6 °F 63% 30.02 in 10.0 mi SW 5.8 mph 9.2 mph N/A   Overcast
3:15 PM 70.0 °F 56.5 °F 62% 30.01 in 10.0 mi WSW 8.1 mph 17.3 mph N/A   Mostly Cloudy
3:35 PM 72.7 °F 57.4 °F 59% 30.01 in 10.0 mi SW 11.5 mph 17.3 mph N/A   Scattered Clouds
3:55 PM 72.7 °F 57.0 °F 58% 30.01 in 10.0 mi WSW 11.5 mph 16.1 mph N/A   Scattered Clouds
4:15 PM 70.2 °F 55.8 °F 60% 30.02 in 10.0 mi SW 9.2 mph - N/A   Overcast
4:35 PM 72.5 °F 58.1 °F 60% 30.02 in 10.0 mi WSW 10.4 mph - N/A   Overcast
4:55 PM 72.7 °F 57.6 °F 59% 30.02 in 10.0 mi WSW 12.7 mph 16.1 mph N/A   Overcast
5:15 PM 72.7 °F 57.7 °F 59% 30.02 in 10.0 mi WSW 10.4 mph 18.4 mph N/A   Mostly Cloudy
5:35 PM 72.7 °F 57.6 °F 59% 30.02 in 10.0 mi WSW 10.4 mph - N/A   Scattered Clouds
5:55 PM 72.7 °F 57.9 °F 60% 30.02 in 10.0 mi WSW 12.7 mph 17.3 mph N/A   Mostly Cloudy
6:15 PM 70.2 °F 56.3 °F 61% 30.03 in 10.0 mi WSW 11.5 mph 16.1 mph N/A   Overcast
6:35 PM 72.5 °F 58.5 °F 61% 30.03 in 10.0 mi WSW 10.4 mph - N/A   Scattered Clouds
6:55 PM 72.7 °F 58.3 °F 60% 30.03 in 10.0 mi WSW 11.5 mph - N/A   Scattered Clouds
7:15 PM 70.2 °F 55.9 °F 61% 30.03 in 10.0 mi WSW 10.4 mph - N/A   Scattered Clouds
7:35 PM 68.2 °F 55.6 °F 64% 30.04 in 10.0 mi WSW 10.4 mph - N/A   Scattered Clouds
7:55 PM 67.6 °F 55.0 °F 64% 30.05 in 10.0 mi WSW 8.1 mph - N/A   Mostly Cloudy
8:15 PM 67.6 °F 57.2 °F 69% 30.05 in 10.0 mi WSW 6.9 mph - N/A   Mostly Cloudy
8:35 PM 67.6 °F 58.6 °F 73% 30.05 in 10.0 mi WSW 5.8 mph - N/A   Scattered Clouds
8:55 PM 62.6 °F 55.8 °F 78% 30.05 in 10.0 mi WSW 5.8 mph - N/A   Scattered Clouds
9:15 PM 61.0 °F 55.9 °F 83% 30.06 in 10.0 mi WSW 4.6 mph - N/A   Clear
9:35 PM 60.1 °F 55.9 °F 86% 30.06 in 10.0 mi WSW 4.6 mph - N/A   Mostly Cloudy
9:55 PM 60.1 °F 56.3 °F 87% 30.07 in 10.0 mi Calm Calm - N/A   Scattered Clouds
10:15 PM 60.1 °F 56.5 °F 88% 30.07 in 10.0 mi WSW 3.5 mph - N/A   Scattered Clouds
10:35 PM 59.0 °F 56.8 °F 93% 30.07 in 10.0 mi SW 4.6 mph - N/A   Scattered Clouds
10:55 PM 59.0 °F 56.8 °F 93% 30.08 in 10.0 mi Calm Calm - N/A   Scattered Clouds
11:15 PM 59.2 °F 56.3 °F 90% 30.08 in 10.0 mi WSW 3.5 mph - N/A   Clear
11:35 PM 57.9 °F 56.3 °F 94% 30.08 in 10.0 mi WSW 3.5 mph - N/A   Clear
11:55 PM 57.7 °F 57.2 °F 98% 30.08 in 10.0 mi West 3.5 mph - N/A   Clear